TimeMDT,TemperatureF,Dew PointF,Humidity,Sea Level PressureIn,VisibilityMPH,Wind Direction,Wind SpeedMPH,Gust SpeedMPH,PrecipitationIn,Events,Conditions,WindDirDegrees,DateUTC
12:35 AM,53.6,42.8,67,29.99,10.0,SE,4.6,-,N/A,,Clear,140,2012-10-03 06:35:00
12:55 AM,51.8,42.8,71,29.99,10.0,SE,3.5,-,N/A,,Clear,130,2012-10-03 06:55:00
1:15 AM,51.8,42.8,71,29.99,10.0,SE,3.5,-,N/A,,Clear,140,2012-10-03 07:15:00
1:35 AM,50.0,41.0,71,29.99,10.0,ENE,4.6,-,N/A,,Clear,70,2012-10-03 07:35:00
1:55 AM,51.8,39.2,62,29.99,10.0,Calm,Calm,-,N/A,,Clear,0,2012-10-03 07:55:00
2:35 AM,51.8,39.2,62,30.00,10.0,SSE,5.8,-,N/A,,Clear,160,2012-10-03 08:35:00
2:55 AM,50.0,39.2,66,30.01,10.0,North,4.6,-,N/A,,Clear,350,2012-10-03 08:55:00
3:15 AM,48.2,41.0,76,30.02,10.0,Calm,Calm,-,N/A,,Clear,0,2012-10-03 09:15:00
3:35 AM,50.0,39.2,66,30.00,10.0,Calm,Calm,-,N/A,,Clear,0,2012-10-03 09:35:00
4:55 AM,46.4,39.2,76,30.02,10.0,Calm,Calm,-,N/A,,Clear,0,2012-10-03 10:55:00
5:15 AM,50.0,37.4,62,30.02,10.0,SE,4.6,-,N/A,,Clear,140,2012-10-03 11:15:00
5:35 AM,46.4,37.4,71,30.03,10.0,Calm,Calm,-,N/A,,Clear,0,2012-10-03 11:35:00
5:55 AM,46.4,37.4,71,30.02,10.0,ESE,5.8,-,N/A,,Clear,110,2012-10-03 11:55:00
6:47 AM,46.4,37.4,71,30.04,15.0,Calm,Calm,-,N/A,,Partly Cloudy,0,2012-10-03 12:47:00
7:52 AM,44.6,37.4,76,30.05,15.0,Calm,Calm,-,N/A,,Partly Cloudy,0,2012-10-03 13:52:00
9:47 AM,59.0,37.4,45,30.08,15.0,SE,4.6,-,N/A,,Partly Cloudy,130,2012-10-03 15:47:00
10:47 AM,62.6,42.8,48,30.09,15.0,Calm,Calm,-,N/A,,Partly Cloudy,0,2012-10-03 16:47:00
11:50 AM,66.2,41.0,40,30.09,15.0,Variable,4.6,-,N/A,,Partly Cloudy,0,2012-10-03 17:50:00
1:50 PM,73.4,33.8,23,30.08,15.0,NW,16.1,-,N/A,,Partly Cloudy,310,2012-10-03 19:50:00
2:50 PM,73.4,30.2,20,30.07,15.0,NW,18.4,-,N/A,,Partly Cloudy,310,2012-10-03 20:50:00
3:50 PM,73.4,35.6,25,30.08,15.0,NW,18.4,-,N/A,,Partly Cloudy,310,2012-10-03 21:50:00
4:58 PM,71.6,26.6,19,30.08,15.0,NW,16.1,-,N/A,,Partly Cloudy,310,2012-10-03 22:58:00
5:55 PM,69.8,24.8,18,30.09,15.0,NW,11.5,-,N/A,,Partly Cloudy,310,2012-10-03 23:55:00
6:48 PM,66.2,30.2,26,30.09,15.0,NW,11.5,-,N/A,,Clear,310,2012-10-04 00:48:00
7:57 PM,62.6,28.4,27,30.10,15.0,WNW,18.4,-,N/A,,Clear,300,2012-10-04 01:57:00
8:50 PM,60.8,30.2,31,30.12,15.0,NW,17.3,-,N/A,,Clear,320,2012-10-04 02:50:00
9:15 PM,57.2,28.4,33,30.12,10.0,NNW,13.8,-,N/A,,Clear,340,2012-10-04 03:15:00
9:35 PM,57.2,28.4,33,30.12,10.0,NW,13.8,-,N/A,,Clear,320,2012-10-04 03:35:00
9:55 PM,55.4,28.4,36,30.13,10.0,Calm,Calm,-,N/A,,Clear,0,2012-10-04 03:55:00
10:15 PM,55.4,28.4,36,30.13,10.0,NNW,10.4,-,N/A,,Clear,330,2012-10-04 04:15:00
10:35 PM,55.4,28.4,36,30.14,10.0,WNW,8.1,-,N/A,,Clear,300,2012-10-04 04:35:00
10:55 PM,55.4,26.6,33,30.15,10.0,WNW,10.4,-,N/A,,Clear,300,2012-10-04 04:55:00
11:15 PM,55.4,26.6,33,30.15,10.0,WNW,11.5,-,N/A,,Clear,300,2012-10-04 05:15:00